Regional Weather Roundup
Issued by NWS

Home | Current Version | Previous Version | Text Only | Print | Product List | Glossary On
Versions: 1 2 3 4 5 6 7 8 9 10 11 12 13 14 15 16 17 18 19 20 21 22 23 24 25 26 27 28 29 30 31 32 33 34 35 36 37 38 39 40 41 42 43 44 45 46 47 48 49 50
000
ASUS43 KTOP 181559
RWRKS

WEATHER ROUNDUP FOR KANSAS
NATIONAL WEATHER SERVICE GOODLAND KS
1000 AM CST WED JAN 18 2017

NOTE:  "FAIR" INDICATES FEW OR NO CLOUDS BELOW 12,000 FEET WITH NO
SIGNIFICANT WEATHER AND/OR OBSTRUCTIONS TO VISIBILITY.

KSZ001>006-013>018-027>032-041>047-181700-
NORTHWEST KANSAS

CITY           SKY/WX    TMP DP  RH WIND       PRES   REMARKS
GOODLAND       CLOUDY    30  26  85 W7        29.93S
HAYS           CLOUDY    37  34  89 S10       30.04  WCI  30
HILL CITY      CLOUDY    38  34  85 SW6       29.98F
RUSSELL        CLOUDY    39  34  82 S15       30.02S WCI  31
$$

KSZ061>065-074>080-084>089-181700-
SOUTHWEST KANSAS

CITY           SKY/WX    TMP DP  RH WIND       PRES   REMARKS
DODGE CITY     CLOUDY    40  36  86 S14       30.05R WCI  32
ELKHART          N/A     41  32  71 S9          N/A
GARDEN CITY    CLOUDY    36  34  92 S5        30.01R
GREAT BEND     LGT RAIN  42  35  76 S13       30.06S
LIBERAL        SUNNY     43  37  81 S13       30.04R
$$

KSZ066>073-081>083-090>101-181700-
SOUTHEAST KANSAS

CITY           SKY/WX    TMP DP  RH WIND       PRES   REMARKS
CHANUTE        CLOUDY    36  35  96 SE6       30.17F FOG
COFFEYVILLE    CLOUDY    41  38  89 CALM      30.18S
HUTCHINSON     CLOUDY    38  34  85 SE6       30.11R
MEDICINE LODGE   N/A     40  35  83 SE9       30.10S
NEWTON         LGT RAIN  38  33  82 S12       30.12R WCI  30
PARSONS        CLOUDY    38  36  92 E3        30.17F
WICHITA INTL   CLOUDY    40  36  86 S9        30.14R
WICHITA JABRA  CLOUDY    39  36  89 S9        30.13R
WINFIELD       CLOUDY    43  39  86 SE5       30.15S
$$

KSZ007>012-019>026-033>040-048>060-102>105-181700-
NORTHEAST KANSAS

CITY           SKY/WX    TMP DP  RH WIND       PRES   REMARKS
CONCORDIA      SUNNY     38  33  82 E5        30.03F
EMPORIA        CLOUDY    35  34  96 S12       30.13S WCI  27
LAWRENCE       MOSUNNY   35  35 100 E7        30.15S
MANHATTAN      SUNNY     32  30  92 CALM      30.10S
OLATHE IND     FOG       32  32 100 SE9       30.16S VSB 1/4
OLATHE EXE     FOG       31  31 100 S10       30.16S VSB 1/4 WCI  22
SALINA         CLOUDY    39  34  82 SE9       30.08S
TOPEKA BILLARD SUNNY     39  34  82 S5        30.14R
TOPEKA FORBES  SUNNY     39  35  86 S10       30.13S WCI  32
$$



USA.gov is the U.S. government's official web portal to all federal, state and local government web resources and services.